Theta_e
317 320 322 320 318 320 322 320 319 318 317 321 320 320 318 316 316 316 316 315 315 316 317 317 317 317 317 319 321 322 323 326 339 342 342 340 340 342 342 341 339 337 335 333
316 320 317 317 318 320 321 320 320 318 318 318 319 319 318 317 316 316 316 315 314 314 314 315 316 316 316 316 318 318 319 321 322 330 341 341 339 338 339 340 341 340 338 336
317 316 315 320 319 320 319 319 320 318 318 317 316 316 318 316 316 315 316 315 313 313 312 311 312 313 313 313 314 316 318 318 319 320 324 340 338 336 336 335 337 339 339 339
317 317 318 320 321 319 321 318 320 319 318 319 315 317 316 317 317 317 313 311 311 313 313 312 312 313 312 313 312 313 314 315 317 318 319 327 338 337 338 338 336 335 335 335
317 318 319 319 319 320 320 320 320 320 317 316 316 315 317 315 316 313 310 311 313 313 311 312 313 314 314 314 313 312 311 312 314 315 315 317 318 323 335 337 336 336 335 335
317 314 316 317 317 316 316 317 321 320 319 323 317 315 315 314 314 312 313 313 314 313 312 313 315 316 316 316 314 314 312 311 311 311 312 313 315 318 324 330 331 330 331 333
314 314 313 313 317 315 314 316 324 324 323 319 317 317 315 312 313 313 314 314 314 315 314 313 314 314 315 316 316 316 315 314 313 312 312 312 313 315 319 324 329 330 331 331
317 316 314 312 315 316 315 320 326 325 320 317 314 317 312 311 312 313 314 315 316 315 315 315 315 315 315 315 314 313 313 314 314 314 314 313 312 313 314 316 320 325 328 329
316 315 311 312 313 316 318 320 316 316 313 314 313 312 309 309 313 313 313 314 316 316 315 314 314 315 315 314 312 311 311 312 312 313 313 314 315 315 315 315 316 319 323 324
315 317 314 313 314 313 317 315 317 319 321 321 313 312 312 308 312 312 312 313 316 315 315 313 312 313 313 311 310 309 309 310 310 311 311 312 312 313 314 315 316 317 317 318
315 317 318 315 318 318 316 317 315 314 315 319 313 311 310 309 310 311 312 313 314 315 313 312 312 312 310 309 308 307 307 307 308 310 311 311 312 312 312 311 311 312 313 313
315 315 319 318 313 312 313 317 316 314 315 314 314 309 309 308 309 311 312 312 313 313 311 312 311 310 308 307 306 304 305 305 306 308 308 307 307 306 305 304 305 306 306 306
313 315 316 315 314 313 314 314 314 312 316 319 315 310 310 308 308 309 310 310 313 313 311 311 308 307 306 305 303 303 302 302 304 304 303 302 302 301 299 299 299 299 300 300
312 314 314 313 316 315 313 314 313 312 315 316 314 310 311 309 309 308 309 310 313 312 310 309 307 305 304 303 302 301 301 301 302 302 300 299 298 297 297 296 296 296 296 297
313 312 312 312 312 313 315 314 313 307 312 310 312 311 309 310 309 308 312 312 313 311 309 308 306 304 304 302 301 301 300 300 300 300 298 297 297 296 295 295 294 294 294 294
312 313 313 311 312 312 313 313 313 312 311 311 311 312 309 309 309 312 312 314 314 311 308 305 304 303 302 302 301 300 299 298 298 298 297 297 296 295 294 294 294 294 293 293
313 312 312 313 312 312 313 313 313 313 311 311 312 311 312 312 312 312 313 313 312 309 307 305 302 302 302 301 301 299 298 298 297 297 296 295 294 293 293 292 291 290 291 291
312 312 313 312 312 316 312 311 312 312 312 311 311 311 311 312 312 311 310 311 308 305 305 303 302 300 300 300 300 299 298 297 296 295 295 294 292 291 291 291 289 290 290 289
310 312 313 313 313 313 314 312 312 312 314 310 310 311 310 312 312 311 309 306 304 302 302 302 301 300 300 300 299 298 297 296 294 294 294 292 291 290 290 290 289 289 289 289
311 310 311 314 314 316 318 313 312 312 321 311 310 311 314 314 317 314 303 300 300 301 300 299 298 298 298 297 297 296 296 295 294 293 292 291 291 290 290 290 289 290 289 288
313 312 312 312 313 312 314 312 311 321 320 313 313 313 313 314 312 306 300 299 299 300 298 297 297 297 296 296 296 295 293 292 292 291 291 290 290 291 290 289 290 290 288 288
312 312 312 312 313 312 311 311 314 316 314 313 313 313 313 308 305 302 300 300 300 298 297 296 296 296 295 295 294 292 291 291 291 291 291 290 290 290 291 290 289 287 287 287
312 310 311 309 310 310 311 311 310 310 312 312 311 310 310 309 306 302 301 301 300 298 297 296 295 295 294 293 293 292 291 291 291 291 291 291 291 290 288 287 287 286 286 285
310 310 310 311 311 309 309 311 310 310 310 310 309 309 309 310 305 303 301 301 300 299 297 296 295 294 292 292 292 292 292 292 292 292 292 290 288 287 287 286 286 286 285 284
310 310 310 310 310 311 311 310 310 309 310 309 308 308 308 309 307 304 302 301 299 298 297 296 295 294 292 292 292 292 292 293 293 293 289 287 287 286 285 285 285 285 284 284
308 309 310 311 309 309 311 309 309 309 309 307 307 308 307 308 308 303 301 301 299 298 297 296 295 294 292 292 293 293 293 293 292 288 287 286 286 285 285 285 285 285 283 283
Wind_Speed
10 6 14 25 22 5 10 11 14 15 12 21 19 14 16 7 5 6 8 7 7 6 4 9 13 11 14 18 16 16 14 16 17 25 24 23 25 23 21 19 20 22 23 24
7 10 10 11 14 15 15 8 14 12 12 9 12 19 16 16 10 9 9 8 8 6 6 8 6 2 6 8 10 13 15 14 20 20 22 23 23 25 30 27 22 23 22 25
12 9 15 12 14 15 12 10 12 9 7 3 2 7 16 14 10 9 8 6 6 6 6 7 9 8 5 8 10 10 17 21 16 20 19 21 16 16 18 26 31 31 25 21
7 14 19 13 13 11 13 11 16 10 11 5 8 4 13 15 9 9 6 4 6 3 1 5 8 9 6 4 7 11 12 10 13 16 18 15 23 19 22 23 22 23 24 28
7 17 19 12 6 7 4 11 10 7 8 7 7 1 5 13 11 8 8 7 6 5 7 7 5 7 5 4 5 3 8 14 16 12 10 13 14 14 22 21 18 17 18 19
8 10 4 3 13 8 6 5 5 7 3 2 9 7 4 6 11 8 7 8 7 7 7 7 7 10 9 7 7 7 5 4 3 9 13 15 16 16 13 12 14 14 16 19
6 4 3 4 8 8 3 10 3 3 1 4 11 8 8 9 11 9 10 9 8 6 7 7 6 7 8 8 9 9 10 9 8 6 4 9 12 13 15 12 11 11 13 16
4 7 1 1 2 5 7 1 1 4 4 4 5 5 4 7 9 10 9 9 7 8 6 6 6 5 7 7 9 9 9 10 9 8 7 6 5 5 7 8 8 9 8 7
5 4 3 0 1 5 5 5 4 4 5 4 5 3 4 2 8 8 8 7 7 7 6 6 6 8 7 10 10 9 10 10 10 9 7 5 6 4 5 4 5 4 4 4
4 6 2 4 2 2 3 5 4 2 2 3 5 7 4 11 11 10 9 8 8 6 6 5 6 8 10 10 8 9 8 9 9 9 9 7 6 5 4 3 3 2 2 3
6 2 4 6 4 5 3 2 3 1 1 1 3 2 6 16 12 10 9 8 8 7 6 5 6 11 9 8 8 9 9 9 9 8 9 10 10 10 9 8 6 6 5 3
5 4 3 3 3 1 3 5 5 3 2 1 1 3 7 9 9 8 8 6 7 7 6 5 7 8 9 8 9 10 10 10 9 8 9 11 11 11 11 12 10 9 7 6
3 3 4 3 2 2 3 3 2 5 2 2 1 2 7 10 9 6 7 7 7 7 6 6 6 7 8 8 7 8 10 10 9 10 10 11 12 11 11 9 9 9 9 10
4 4 3 3 3 4 2 4 5 4 2 2 4 5 7 12 9 6 8 7 8 7 6 5 6 7 8 6 6 8 9 9 9 10 11 11 11 11 11 11 12 12 12 12
4 3 3 4 4 3 4 3 7 4 5 3 5 2 8 10 8 8 8 8 8 7 7 5 5 6 9 7 7 7 8 9 9 10 10 10 11 11 14 15 16 16 16 17
2 2 3 2 0 2 3 5 6 7 7 7 5 5 4 7 6 5 6 8 6 6 7 6 5 6 7 8 7 7 8 9 9 11 10 10 11 11 14 14 16 16 18 19
2 3 1 1 1 4 5 10 9 6 6 9 7 6 1 4 5 5 5 7 6 7 6 6 7 6 7 7 7 7 8 8 10 10 10 10 10 11 13 14 14 16 17 21
2 2 1 1 1 2 3 4 2 8 6 7 6 4 5 3 3 3 4 5 7 7 5 6 8 9 7 8 8 8 8 9 11 11 10 11 10 13 16 16 16 18 20 21
3 2 2 1 3 1 1 2 3 5 5 8 6 3 5 5 2 3 5 4 6 6 6 8 12 12 8 8 7 9 9 10 10 10 11 11 14 16 17 18 18 19 20 19
1 3 1 2 1 2 3 3 1 2 2 3 7 6 4 4 1 2 6 5 5 7 11 13 12 10 9 7 7 10 10 11 12 10 12 15 16 17 17 18 17 18 19 18
3 3 3 4 2 4 5 5 1 2 3 5 2 2 4 3 1 5 7 5 7 10 13 12 10 9 10 8 9 11 11 11 12 13 15 16 17 17 17 17 17 16 18 17
5 4 4 4 2 5 4 2 1 4 4 5 4 4 4 6 6 6 6 5 6 10 12 11 10 10 9 8 11 12 15 15 16 16 17 17 17 16 16 15 13 13 12 12
2 2 2 5 3 2 5 5 4 3 3 2 4 4 3 6 4 6 5 6 6 12 13 12 11 10 8 8 11 15 16 18 18 18 18 14 15 14 12 11 10 8 7 8
5 2 1 3 2 6 6 4 5 4 5 3 3 2 4 3 7 7 7 6 5 12 13 13 13 11 9 10 12 15 19 19 19 16 15 13 12 12 11 9 7 7 6 6
0 4 5 4 5 3 4 5 8 5 3 3 2 2 3 4 7 7 7 7 8 11 14 14 16 12 11 14 15 17 21 19 16 15 15 14 13 12 11 9 7 6 5 4
4 4 3 2 2 4 5 7 7 4 3 3 2 4 4 3 5 7 6 11 12 14 17 14 12 14 14 15 18 20 18 17 17 17 16 16 14 13 11 10 8 5 5 4
Wind_Direction
200 183 182 194 196 207 195 200 229 199 211 195 212 208 239 223 177 244 274 285 232 228 225 242 251 234 231 234 226 240 233 222 204 197 201 209 225 227 217 221 227 226 222 219
205 215 205 195 199 201 229 225 214 243 145 176 204 227 228 220 216 198 228 257 273 272 235 213 150 253 276 274 257 244 245 239 223 225 219 215 224 233 234 228 220 221 224 223
206 192 196 176 202 197 227 198 243 195 146 254 193 274 219 231 210 193 223 251 305 314 354 358 23 18 339 286 281 259 240 246 244 231 235 221 224 232 230 236 240 236 230 223
207 164 175 176 188 196 208 217 241 209 164 188 172 258 207 205 200 209 208 209 238 162 312 58 44 47 36 334 277 262 250 241 234 240 236 220 208 205 225 233 237 245 248 253
183 162 148 151 176 199 217 313 268 133 199 130 188 311 270 188 204 176 202 185 125 122 127 106 102 111 95 59 42 337 274 262 256 253 255 257 267 259 235 229 232 237 253 258
57 31 63 61 140 137 25 346 329 185 190 267 183 193 221 175 189 173 156 141 145 157 127 126 136 122 102 72 56 46 60 44 312 262 255 258 261 263 277 246 240 251 257 258
61 32 54 54 83 106 96 216 106 143 167 225 184 194 267 191 162 157 143 142 138 160 130 126 102 107 89 70 47 42 35 44 31 25 324 265 262 264 267 277 261 258 261 266
131 143 84 63 102 166 171 275 190 192 190 146 360 203 219 112 118 139 134 125 145 126 117 102 99 87 96 73 55 40 33 37 29 25 15 7 331 297 281 281 284 278 276 295
132 92 96 172 103 154 151 188 103 288 228 105 193 132 25 100 121 119 129 148 155 126 118 98 89 72 62 61 53 45 38 40 29 22 10 12 34 50 13 333 317 320 315 323
131 103 61 104 161 173 234 176 155 255 254 189 210 164 198 184 167 164 161 174 144 137 126 107 91 85 70 63 50 51 43 42 33 28 18 13 2 348 345 353 2 357 355 329
157 112 140 158 208 155 165 230 233 308 119 312 128 241 181 174 168 170 166 162 141 134 109 95 88 96 87 78 66 62 51 49 40 36 41 46 46 51 64 60 44 45 53 1
13 104 123 92 110 316 310 203 204 129 230 104 186 292 127 144 153 134 117 128 130 123 108 107 99 102 93 81 68 63 53 50 43 42 64 57 58 67 69 68 67 68 67 51
171 133 113 143 179 163 229 231 48 78 46 217 89 216 124 100 96 121 148 161 143 145 144 137 122 105 99 87 76 69 58 51 51 56 65 65 63 64 61 60 61 70 70 73
331 54 99 149 95 115 172 212 126 105 134 184 218 142 150 150 163 201 166 163 152 154 151 154 132 122 114 99 87 73 65 59 59 66 69 67 66 67 66 65 66 69 69 73
29 116 91 74 92 95 175 195 157 149 236 125 327 245 202 168 167 214 149 148 145 151 153 159 136 131 142 132 107 95 83 73 70 73 70 66 70 72 72 70 71 71 75 77
356 89 87 307 62 216 219 227 207 175 236 268 280 320 100 172 167 145 163 153 158 161 152 137 132 138 137 130 122 109 88 80 86 80 78 77 79 80 84 84 81 85 89 93
334 122 142 196 168 296 283 223 203 177 189 205 212 220 47 114 141 161 145 152 176 166 162 165 155 151 126 120 122 113 102 97 91 88 86 87 83 83 89 89 90 96 94 102
191 184 87 282 192 263 150 27 162 195 197 211 254 257 135 94 46 106 105 173 162 151 158 135 129 134 140 139 126 123 114 105 99 95 92 90 88 96 101 105 110 107 107 101
310 234 173 213 229 284 118 167 179 145 245 213 212 274 292 96 65 250 111 35 130 129 153 146 147 145 142 131 126 124 113 106 104 101 108 112 116 114 111 118 118 115 105 99
291 323 89 92 260 264 112 134 68 202 147 75 168 212 136 109 254 198 123 105 106 140 123 119 124 139 143 136 145 132 121 125 118 126 120 122 128 128 124 129 121 108 108 99
199 204 212 233 263 310 139 149 115 208 136 120 109 245 173 204 180 129 116 134 166 130 119 129 142 154 149 156 147 133 136 133 137 137 130 132 136 134 132 128 121 114 105 101
176 190 201 207 227 252 137 114 318 142 172 87 73 61 65 119 127 135 141 163 135 127 135 151 143 136 144 154 159 145 139 143 144 138 137 133 135 140 137 126 121 118 114 114
265 183 174 176 210 105 177 93 103 68 96 102 100 79 50 130 150 154 162 171 152 152 157 151 147 139 143 157 164 149 148 147 148 147 143 142 139 136 129 129 130 139 139 134
219 132 214 41 214 164 185 130 91 66 107 96 95 111 158 177 163 171 169 171 156 162 153 164 164 146 166 162 159 159 155 155 150 152 150 147 150 146 145 142 145 139 134 131
97 99 213 247 265 172 205 147 120 97 101 168 226 239 246 190 169 167 170 170 169 169 166 178 166 166 168 160 164 168 162 162 167 167 161 158 155 152 144 135 127 155 143 146
188 198 199 246 12 85 65 99 92 82 76 41 355 314 228 215 174 156 169 178 172 174 170 178 178 169 171 169 175 173 175 178 175 169 168 167 165 165 167 155 132 125 135 156